TimeMDT,TemperatureF,Dew PointF,Humidity,Sea Level PressureIn,VisibilityMPH,Wind Direction,Wind SpeedMPH,Gust SpeedMPH,PrecipitationIn,Events,Conditions,WindDirDegrees,DateUTC
12:53 AM,64.9,50.0,58,29.98,10.0,Calm,Calm,-,N/A,,Clear,0,2013-08-29 06:53:00
1:53 AM,60.1,51.1,72,29.99,10.0,SE,3.5,-,N/A,,Clear,130,2013-08-29 07:53:00
2:53 AM,61.0,51.1,70,29.98,10.0,SE,5.8,-,N/A,,Clear,130,2013-08-29 08:53:00
3:53 AM,59.0,51.1,75,29.99,10.0,ESE,3.5,-,N/A,,Clear,120,2013-08-29 09:53:00
4:53 AM,57.9,51.1,78,29.99,10.0,Calm,Calm,-,N/A,,Clear,0,2013-08-29 10:53:00
5:53 AM,57.0,50.0,77,30.00,10.0,Calm,Calm,-,N/A,,Clear,0,2013-08-29 11:53:00
6:53 AM,53.1,48.9,86,30.01,10.0,Calm,Calm,-,N/A,,Clear,0,2013-08-29 12:53:00
7:53 AM,55.0,50.0,83,30.03,10.0,Calm,Calm,-,N/A,,Clear,0,2013-08-29 13:53:00
8:53 AM,57.9,51.1,78,30.06,10.0,Calm,Calm,-,N/A,,Scattered Clouds,0,2013-08-29 14:53:00
9:53 AM,63.0,52.0,67,30.04,10.0,South,3.5,-,N/A,,Partly Cloudy,190,2013-08-29 15:53:00
10:53 AM,69.1,52.0,54,30.02,10.0,Calm,Calm,-,0.00,,Partly Cloudy,0,2013-08-29 16:53:00
11:53 AM,73.9,52.0,46,29.99,10.0,South,6.9,-,N/A,,Clear,190,2013-08-29 17:53:00
12:53 PM,80.1,52.0,38,29.94,10.0,Calm,Calm,-,N/A,,Clear,0,2013-08-29 18:53:00
1:53 PM,86.0,51.1,30,29.91,10.0,SSE,4.6,-,N/A,,Clear,160,2013-08-29 19:53:00
2:53 PM,90.0,51.1,26,29.87,10.0,SSE,8.1,-,N/A,,Clear,150,2013-08-29 20:53:00
3:53 PM,90.0,50.0,25,29.83,10.0,SSE,8.1,-,N/A,,Clear,160,2013-08-29 21:53:00
4:53 PM,88.0,48.9,26,29.85,10.0,West,16.1,21.9,N/A,,Partly Cloudy,270,2013-08-29 22:53:00
5:11 PM,84.2,51.8,33,29.99,10.0,West,10.4,25.3,0.00,Rain,Light Rain,280,2013-08-29 23:11:00
5:20 PM,82.4,51.8,35,30.00,10.0,NW,15.0,21.9,0.00,Thunderstorm,Thunderstorm,320,2013-08-29 23:20:00
5:53 PM,68.0,60.1,76,30.05,2.5,North,12.7,42.6,0.03,Rain-Thunderstorm,Thunderstorms and Rain,350,2013-08-29 23:53:00
5:56 PM,69.8,60.8,73,30.05,4.0,North,18.4,32.2,0.00,Rain-Thunderstorm,Light Thunderstorms and Rain,10,2013-08-29 23:56:00
6:10 PM,73.4,57.2,57,30.05,10.0,North,13.8,29.9,0.00,Rain-Thunderstorm,Light Rain,360,2013-08-30 00:10:00
6:23 PM,73.4,59.0,61,30.07,10.0,WNW,11.5,-,0.00,,Partly Cloudy,290,2013-08-30 00:23:00
6:53 PM,72.0,57.9,61,30.03,10.0,NNW,10.4,-,0.00,,Clear,330,2013-08-30 00:53:00
7:53 PM,71.1,60.1,68,30.03,10.0,East,4.6,-,N/A,,Mostly Cloudy,80,2013-08-30 01:53:00
8:53 PM,69.1,60.1,73,30.04,10.0,Calm,Calm,-,N/A,,Clear,0,2013-08-30 02:53:00
9:53 PM,64.0,60.1,87,30.04,10.0,SSE,3.5,-,N/A,,Clear,150,2013-08-30 03:53:00
10:53 PM,60.1,57.0,90,30.04,10.0,Calm,Calm,-,N/A,,Clear,0,2013-08-30 04:53:00
11:53 PM,59.0,55.0,87,30.04,10.0,NNW,6.9,-,N/A,,Clear,340,2013-08-30 05:53:00